Flag for China Weather past 2 weeks in Changchun, Jilin, China

Now
52 °F

Partly sunny.


Feels Like: 48 °F
Forecast: 32 / 60 °F
Wind: 10 mph from South

Location: Changchun Airport

Current Time: Mar 28, 2015 at 10:25:23 AM

Latest Report: Mar 28, 2015 at 10:00 AM


Visibility: 4 mi

Pressure: 29.77 "Hg

Humidity: 32%

Dew point: 23 °F

Location of ChangchunLocation

Historic Weather in Changchun — Graph

°F

Changchun temperature yesterday

Maximum temperature yesterday: 68 °F (at 2:00 PM)
Minimum temperature yesterday: 46 °F (at 5:00 AM)
Average temperature yesterday: 56 °F

Past Weeks' High & Low Weather Summary

 TemperatureHumidityPressure
High68 °F (Mar 27, 2:00 PM)93% (Mar 17, 3:00 AM)30.54 "Hg (Mar 17, 3:00 AM)
Low12 °F (Mar 14, 6:00 AM)10% (Mar 24, 4:00 PM)29.77 "Hg (Mar 28, 3:00 AM)
Average37 °F40%30.10 "Hg
* Reported Mar 13 9:00 AM — Mar 28 9:00 AM, Changchun, Weather by CustomWeather, © 2015

Note: Actual official high and low records may vary slightly from our data, if they occured in-between our weather recording intervals... More about our weather records

Advertising

Changchun weather history for previous 24 hours

 ConditionsComfort  
Time TempWeatherWind HumidityBarometerVisibility
9:00 AM
Sat, Mar 28
50 °FPartly sunny.17 mph32%29.77 "Hg4 mi
8:00 AM50 °FPartly sunny.13 mph30%29.77 "Hg4 mi
7:00 AM48 °FOvercast.15 mph29%29.77 "Hg4 mi
6:00 AM46 °FOvercast.13 mph32%29.77 "Hg4 mi
5:00 AM46 °FPassing clouds.15 mph34%29.77 "Hg4 mi
4:00 AM46 °FPassing clouds.15 mph34%29.77 "Hg4 mi
3:00 AM48 °FPassing clouds.17 mph34%29.77 "Hg4 mi
2:00 AM48 °FPassing clouds.13 mph34%29.80 "Hg4 mi
1:00 AM48 °FPassing clouds.13 mph34%29.83 "Hg4 mi
12:00 AM50 °FPassing clouds.13 mph25%29.86 "Hg4 mi
11:00 PM
Fri, Mar 27
52 °FPassing clouds.13 mph20%29.86 "Hg4 mi
10:00 PM54 °FClear.17 mph19%29.86 "Hg4 mi
9:00 PM55 °FClear.17 mph21%29.89 "Hg4 mi
8:00 PM57 °FClear.17 mph21%29.89 "Hg4 mi
7:00 PM57 °FPassing clouds.17 mph21%29.89 "Hg4 mi
6:00 PM61 °FSandstorm.20 mph19%29.86 "Hg3 mi
5:00 PM63 °FClear.22 mph17%29.86 "Hg4 mi
4:00 PM64 °FClear.22 mph18%29.86 "Hg4 mi
3:00 PM66 °FClear.26 mph18%29.86 "Hg4 mi
2:00 PM68 °FClear.26 mph16%29.89 "Hg4 mi
1:00 PM66 °FClear.26 mph15%29.92 "Hg4 mi
12:00 PM66 °FClear.26 mph14%29.95 "Hg4 mi
11:00 AM63 °FClear.24 mph17%29.98 "Hg4 mi
10:00 AM61 °FClear.22 mph22%29.98 "Hg4 mi
Weather by CustomWeather, © 2015

See weather overviewHow to use our weather pages